Location: Aulus
(42.7909°N, 1.3399°E)
Time: 22:08:04
(UTC+00:00)

Okean O Rocket - Pass Details

Date: 19 May 2025
Orbit: 614 x 636 km, 98.0° (Epoch: 12 June)

Event Time Altitude Azimuth Distance (km) Brightness Sun altitude
Exits shadow 19:57:25 - 147° (SSE) 2,199 3.8 -7.4°
Reaches altitude 10° 19:57:56 10° 145° (SE) 2,000 3.6 -7.5°
Maximum altitude 20:02:06 47° 72° (ENE) 837 2.0 -8.1°
Drops below altitude 10° 20:06:16 10° 359° (N) 2,001 4.8 -8.7°
Sets 20:08:30 0° 353° (N) 2,908 5.7 -9.0°
